Home   Weather   Bimbo   Past weeks

Flag for Central African Republic Past Weather in Bimbo, Central African Republic — Yesterday and Last 2 Weeks

Now
81 °F

Haze.


Feels Like: 83 °F
Forecast: 67 / 98 °F
Wind: No wind

Location: Bangui Airport

Current Time: Feb 19, 2017 at 10:16:32 pm

Latest Report: Feb 19, 2017 at 9:00 pm


Visibility: 2 mi

Pressure: 29.86 "Hg

Humidity: 62%

Dew Point: 66 °F

Location of BimboLocation

Past Weather in Bimbo — Graph

°F

Bimbo Temperature Yesterday

Maximum temperature yesterday: 97 °F (at 3:00 pm)
Minimum temperature yesterday: 68 °F (at 6:00 am)
Average temperature yesterday: 82 °F

High & Low Weather Summary for the Past Weeks

 TemperatureHumidityPressure
High100 °F (Feb 6, 2:00 pm)100% (Feb 9, 7:00 am)29.98 "Hg (Feb 9, 7:00 am)
Low68 °F (Feb 18, 6:00 am)12% (Feb 10, 1:00 pm)29.65 "Hg (Feb 6, 4:00 pm)
Average83 °F57%29.80 "Hg
* Reported Feb 4 9:00 pm — Feb 19 9:00 pm, Bimbo, Weather by CustomWeather, © 2017

Note: Actual official high and low records may vary slightly from our data, if they occured in-between our weather recording intervals... More about our weather records

Advertising

Bimbo Weather History for the Previous 24 Hours

Scroll right to see more
 ConditionsComfort  
Time TempWeatherWind HumidityBarometerVisibility
9:00 pm
Sun, Feb 19
81 °FHaze.No wind62%29.86 "Hg2 mi
8:00 pm82 °FHaze.5 mph58%29.83 "Hg2 mi
7:00 pm86 °FHaze.2 mph52%29.80 "Hg2 mi
6:00 pm91 °FClear.No wind41%29.77 "Hg5 mi
5:00 pm93 °FSunny.2 mph34%29.77 "Hg10 mi
4:00 pm97 °FPassing clouds.5 mph32%29.77 "HgN/A
3:00 pm95 °FPassing clouds.10 mph30%29.77 "HgN/A
2:00 pm95 °FSunny.6 mph30%29.80 "Hg10 mi
1:00 pm93 °FSunny.7 mph26%29.86 "Hg10 mi
12:00 pm88 °FSunny.7 mph29%29.89 "Hg10 mi
11:00 am86 °FSunny.3 mph35%29.95 "Hg10 mi
10:00 am81 °FClear.3 mph48%29.95 "Hg5 mi
9:00 am75 °FThunderstorms. Passing clouds.No wind57%29.98 "Hg5 mi
8:00 am73 °FThunderstorms. Passing clouds.3 mph74%29.95 "Hg5 mi
7:00 am70 °FThunderstorms. Passing clouds.3 mph83%29.95 "Hg5 mi
6:00 am70 °FThunderstorms. Passing clouds.10 mph83%29.92 "Hg5 mi
4:00 am77 °FThunderstorms. Passing clouds.8 mph69%29.89 "Hg5 mi
3:00 am79 °FThunderstorms. Passing clouds.8 mph58%29.89 "Hg5 mi
2:00 am77 °FThunderstorms. Passing clouds.2 mph65%29.86 "Hg5 mi
1:00 am77 °FClear.2 mph65%29.89 "Hg5 mi
12:00 am77 °FClear.3 mph61%29.89 "Hg5 mi
11:00 pm
Sat, Feb 18
79 °FClear.2 mph65%29.89 "Hg5 mi
10:00 pm81 °FClear.No wind62%29.86 "Hg4 mi
Weather by CustomWeather, © 2017

See weather overviewHow to use our weather pages